Lexington Weather

Lexington, Massachusetts, USA

38°F
3/2/2024 7:54am 
  • Lexington Conditions: Light rain, Overcast
  • Temperature: 37.8°F / 3.2°CWarmer 1.1°F than last hour.
  • Dew Point: 32.5°FIncreased 1.4°Fsince last hour.
  • Relative Humidity: 81%Increased 1.0% since last hour.
  • Wind: Calm, 10-min avg: Calm, gust: None
  • Barometer: 30.45 in Steady
  • Visibility: 10 miles
  • Rain Today: 0.00 in
  •   

Regional Weather Roundup
for Boston, MA

        
000
ASUS41 KBOX 291810
RWRBOX

REGIONAL WEATHER ROUNDUP
NATIONAL WEATHER SERVICE BOSTON/NORTON MA
100 PM EST THU FEB 29 2024

NOTE:  "FAIR" INDICATES FEW OR NO CLOUDS BELOW 12,000 FEET WITH NO 
SIGNIFICANT WEATHER AND/OR OBSTRUCTIONS TO VISIBILITY.

MAZALL-291900-
EASTERN MASSACHUSETTS
  
CITY           SKY/WX    TMP DP  RH WIND       PRES   REMARKS
BOSTON         MOSUNNY   32  11  41 W21G39    30.15F WCI  20          
6HR MIN TEMP:  27; 6HR MAX TEMP:  33;                                

BEVERLY        PTSUNNY   33   6  32 W20G43    30.11F WCI  21          
LAWRENCE       CLOUDY    30   5  34 NW12G24   30.14S WCI  20          
BEDFORD        PTSUNNY   32   4  30 W21G31    30.13F WCI  20          
NORWOOD        PTSUNNY   33   8  35 W21G33    30.17F WCI  21          
MARSHFIELD     PTSUNNY   34   7  32 W10G22    30.15F WCI  26          
PLYMOUTH       PTSUNNY   34  12  40 W20G29    30.15F WCI  23          
TAUNTON        CLOUDY    36  10  34 W12G26    30.17F WCI  28          
NEW BEDFORD    CLOUDY    34  10  37 W15G30    30.18S WCI  24          
$$

MAZALL-291900-
CAPE COD AND THE ISLANDS
  
CITY           SKY/WX    TMP DP  RH WIND       PRES   REMARKS
FALMOUTH       NOT AVBL                                               
HYANNIS        PTSUNNY   33   9  36 W16G28    30.15S WCI  23          
CHATHAM        PTSUNNY   33  10  38 W9G24     30.16F WCI  25          
PROVINCETOWN   PTSUNNY   34  11  38 W23G30    30.16S WCI  22          
NANTUCKET      PTSUNNY   37  15  40 W23G37    30.18F WCI  26          
MARTHAS VNYRD  PTSUNNY   37  12  35 NW17      30.18S WCI  27          
$$
 
MAZALL-291900-
CENTRAL AND WESTERN MASSACHUSETTS
  
CITY           SKY/WX    TMP DP  RH WIND       PRES   REMARKS
WORCESTER      CLOUDY    28   8  43 W24G40    30.10F WCI  14          
6HR MIN TEMP:  22; 6HR MAX TEMP:  29;                                

FITCHBURG      CLOUDY    32   4  30 W28G48    30.16R WCI  18          
ORANGE         CLOUDY    29   9  43 W13G25    30.16S WCI  19          
SPRINGFIELD    PTSUNNY   31   7  35 NW20      30.17S WCI  19          
WESTFIELD      PTSUNNY   30  14  51 NW14G21   30.21  WCI  20          
NORTH ADAMS    CLOUDY    25  12  58 W9G22     30.18S WCI  15          
PITTSFIELD     CLOUDY    24  11  57 W15G28    30.14S WCI  11          
$$
 
RIZALL-291900-
RHODE ISLAND
  
CITY           SKY/WX    TMP DP  RH WIND       PRES   REMARKS
PROVIDENCE     PTSUNNY   33   8  35 W17G32    30.20S WCI  22          
6HR MIN TEMP:  27; 6HR MAX TEMP:  34;                                

NEWPORT        PTSUNNY   33  13  43 NW17G28   30.19S WCI  22          
BLOCK ISLAND   PTSUNNY   34  10  37 W12G21    30.21F WCI  25          
SMITHFIELD     PTSUNNY   31  12  45 NW18G28   30.17S WCI  19          
WESTERLY       PTSUNNY   36  10  34 W12G21    30.20F WCI  28          
$$
 
CTZALL-291900-
CONNECTICUT
  
CITY           SKY/WX    TMP DP  RH WIND       PRES   REMARKS
BRADLEY INTL   PTSUNNY   31  11  43 NW17G29   30.21S WCI  19          
6HR MIN TEMP:  26; 6HR MAX TEMP:  35;                                

HARTFORD       PTSUNNY   35  11  36 NW21G32   30.21F WCI  24          
PLAINVILLE     CLOUDY    35   9  34 NW12G22   30.21S WCI  26          
BRIDGEPORT     MOSUNNY   37  10  32 W17G26    30.23F WCI  27          
DANBURY        PTSUNNY   34   8  33 W14G28    30.23F WCI  25          
GROTON         PTSUNNY   37  10  32 NW10      30.20F WCI  30          
NEW HAVEN      MOSUNNY   38  11  32 W21G30    30.22F WCI  28          
CHESTER        MOSUNNY   37   3  23 W15G23    30.17F WCI  28          
MERIDEN        FLURRIES  36   5  27 W14G37    30.21F WCI  27          
WILLIMANTIC    PTSUNNY   34  10  37 W15       30.20F WCI  24          
OXFORD         PTSUNNY   33   7  33 W17G29    30.19F WCI  22          
$$

MEZ002-015-021-024-NHZ003-005-008-011-012-014-VTZ005-008-291900-
NORTHERN NEW ENGLAND
  
CITY           SKY/WX    TMP DP  RH WIND       PRES   REMARKS
PORTLAND ME    PTSUNNY   28  -3  26 W32G48    30.06S WCI  12          
6HR MIN TEMP:  23; 6HR MAX TEMP:  30; 6HR PCP: TRACE;                

BANGOR ME      PTSUNNY   21   2  43 W16G32    29.97S WCI   7          
CONCORD NH     CLOUDY    28   0  29 W22G35    30.10F WCI  14          
MANCHESTER NH  PTSUNNY   31   4  31 W14G31    30.11S WCI  21          
NASHUA NH      CLOUDY    30   6  36 W14G24    30.14S WCI  19          
PORTSMOUTH NH  PTSUNNY   31  -3  22 W28G43    30.09S WCI  17          
JAFFREY NH     CLOUDY    27   4  37 W13G31    30.09F WCI  16          
KEENE NH       CLOUDY    28   8  43 W16G29    30.14F WCI  16          
BURLINGTON VT  PTSUNNY   22  -3  33 W13G25    30.16F WCI  10          
MT. WASHINGTON NOT AVBL                                               
$$

NYZ052-076-291900-
EASTERN NEW YORK
  
CITY           SKY/WX    TMP DP  RH WIND       PRES   REMARKS
ALBANY         PTSUNNY   31  10  41 W20G35    30.25S WCI  19          
6HR MIN TEMP:  22; 6HR MAX TEMP:  31; 6HR PCP: TRACE;                

NEW YORK CITY  MOSUNNY   38   9  30 NW21G32   30.26F WCI  28          
6HR MIN TEMP:  32; 6HR MAX TEMP:  38;                                

$$
 
ANZALL-291900-
MARINE OBSERVATIONS
  
STATION/POSITION TIME  TEMP    WIND        PRES    VSBY  WAVE
                       AIR SEA DIR/SP/G                  HT/PER
                 (UTC) (F)     (DEG/KT/KT) (MB)    (MI)  (FT/S)
BOSTON BUOY      1750   32 40  270/ 25/ 33 1020.4F         5/ 4
BUZZARDS BAY     1600   31     280/ 24/ 28 1023.1F
NANTUCKET SOUND  1750   33 39  280/ 21/ 27 1021.4F         3/ 4
MASS BAY-STELLWA 1604   31 40  300/ 16/ 21 1020.7R  1 7/8  3/ 4
ISLE OF SHOALS   1700   29     290/ 37/ 43 1017.4R
S OF BLOCK IS    1756      42                N/A           9/11
$$

......................KEY.........................
  SKY/WX - SKY CONDITION/PRESENT WEATHER
  TMP    - TEMPERATURE IN FAHRENHEIT
  DWPT   - DEWPOINT IN FAHRENHEIT
  RH     - RELATIVE HUMIDITY IN PERCENT
  WIND   - DIRECTION AND SPEED IN MPH
  PRES   - MEAN SEA LEVEL PRESSURE IN INCHES OF HG
  WCI    - WIND CHILL INDEX
  VSB    - VISIBILITY IN MILES
  HX     - HEAT INDEX
  TC     - TEMPERATURE IN CELSIUS
  VRB    - VARIABLE WIND DIRECTION
  N/A    - NOT AVAILABLE
  
      

Other recent Regional Weather Roundups

Sat Mar 2, 7:10am EST

Sat Mar 2, 6:10am EST

Sat Mar 2, 5:10am EST

Sat Mar 2, 4:10am EST

Sat Mar 2, 3:10am EST

Sat Mar 2, 2:10am EST

Sat Mar 2, 1:10am EST

Sat Mar 2, 12:10am EST

Fri Mar 1, 11:10pm EST

Fri Mar 1, 10:10pm EST

Fri Mar 1, 9:10pm EST

Fri Mar 1, 8:10pm EST

Fri Mar 1, 7:10pm EST

Fri Mar 1, 6:10pm EST

Fri Mar 1, 5:10pm EST

Fri Mar 1, 4:10pm EST

Fri Mar 1, 3:10pm EST

Fri Mar 1, 2:10pm EST

Fri Mar 1, 1:10pm EST

Fri Mar 1, 12:10pm EST

Fri Mar 1, 11:10am EST

Fri Mar 1, 10:10am EST

Fri Mar 1, 9:10am EST

Fri Mar 1, 8:10am EST

Fri Mar 1, 7:10am EST

Fri Mar 1, 6:10am EST

Fri Mar 1, 5:10am EST

Fri Mar 1, 4:10am EST

Fri Mar 1, 3:10am EST

Fri Mar 1, 2:10am EST

Fri Mar 1, 1:10am EST

Fri Mar 1, 12:10am EST

Thu Feb 29, 11:10pm EST

Thu Feb 29, 10:10pm EST

Thu Feb 29, 9:10pm EST

Thu Feb 29, 8:10pm EST

Thu Feb 29, 7:10pm EST

Thu Feb 29, 6:10pm EST

Thu Feb 29, 5:10pm EST

Thu Feb 29, 4:10pm EST

Thu Feb 29, 3:10pm EST

Thu Feb 29, 2:10pm EST

Thu Feb 29, 12:10pm EST

Thu Feb 29, 11:10am EST

Thu Feb 29, 10:10am EST

Thu Feb 29, 9:10am EST

Thu Feb 29, 8:10am EST

Thu Feb 29, 7:10am EST

Thu Feb 29, 6:10am EST

Thu Feb 29, 5:10am EST

Thu Feb 29, 4:10am EST

Thu Feb 29, 3:10am EST

Thu Feb 29, 2:10am EST

Thu Feb 29, 1:10am EST

Thu Feb 29, 12:10am EST

Wed Feb 28, 11:10pm EST

Wed Feb 28, 10:10pm EST

Wed Feb 28, 9:10pm EST

Wed Feb 28, 8:10pm EST

Wed Feb 28, 7:10pm EST

Wed Feb 28, 6:10pm EST

Wed Feb 28, 5:10pm EST

Wed Feb 28, 4:10pm EST

Wed Feb 28, 3:10pm EST

Wed Feb 28, 2:10pm EST

Wed Feb 28, 1:10pm EST

Wed Feb 28, 12:10pm EST

Wed Feb 28, 11:10am EST

Wed Feb 28, 10:10am EST

Wed Feb 28, 9:10am EST

Wed Feb 28, 8:10am EST

Wed Feb 28, 7:10am EST

Wed Feb 28, 6:10am EST

Wed Feb 28, 5:10am EST

Wed Feb 28, 4:10am EST

Wed Feb 28, 3:10am EST

Wed Feb 28, 2:10am EST

Wed Feb 28, 1:10am EST

Wed Feb 28, 12:10am EST

Tue Feb 27, 11:10pm EST

Tue Feb 27, 10:10pm EST

Tue Feb 27, 9:10pm EST

Tue Feb 27, 8:10pm EST

Tue Feb 27, 7:10pm EST

Tue Feb 27, 6:10pm EST

Tue Feb 27, 5:10pm EST

Tue Feb 27, 4:10pm EST

Tue Feb 27, 3:10pm EST

Tue Feb 27, 2:10pm EST

Tue Feb 27, 1:10pm EST

Tue Feb 27, 12:10pm EST

Tue Feb 27, 11:10am EST

Tue Feb 27, 10:10am EST

Tue Feb 27, 9:10am EST

Tue Feb 27, 8:10am EST

Tue Feb 27, 7:10am EST

Tue Feb 27, 6:10am EST

Tue Feb 27, 5:10am EST

Tue Feb 27, 4:10am EST

Tue Feb 27, 3:10am EST

Tue Feb 27, 2:10am EST

Tue Feb 27, 1:10am EST

Tue Feb 27, 12:10am EST

Mon Feb 26, 11:10pm EST

Mon Feb 26, 10:10pm EST

Mon Feb 26, 9:10pm EST

Mon Feb 26, 8:10pm EST

Mon Feb 26, 7:10pm EST

Mon Feb 26, 6:10pm EST

Mon Feb 26, 5:10pm EST

Mon Feb 26, 4:10pm EST

Mon Feb 26, 3:10pm EST

Mon Feb 26, 2:10pm EST

Mon Feb 26, 1:10pm EST

Mon Feb 26, 12:10pm EST

Mon Feb 26, 11:10am EST

Mon Feb 26, 10:10am EST

Mon Feb 26, 9:10am EST

Mon Feb 26, 8:10am EST

Mon Feb 26, 7:10am EST

Mon Feb 26, 6:10am EST

Mon Feb 26, 5:10am EST

Mon Feb 26, 4:10am EST

Mon Feb 26, 3:10am EST

Mon Feb 26, 2:10am EST

Mon Feb 26, 1:10am EST

Mon Feb 26, 12:10am EST

Sun Feb 25, 11:10pm EST

Sun Feb 25, 10:10pm EST

Sun Feb 25, 9:10pm EST

Sun Feb 25, 8:10pm EST

Sun Feb 25, 7:10pm EST

Sun Feb 25, 6:10pm EST

Sun Feb 25, 5:10pm EST

Sun Feb 25, 4:10pm EST

Sun Feb 25, 3:10pm EST

Sun Feb 25, 2:10pm EST

Sun Feb 25, 1:10pm EST

Sun Feb 25, 12:10pm EST

Sun Feb 25, 11:10am EST

Sun Feb 25, 10:10am EST

Sun Feb 25, 9:10am EST

Sun Feb 25, 8:10am EST

Sun Feb 25, 7:10am EST

Sun Feb 25, 6:10am EST

Sun Feb 25, 5:10am EST

Sun Feb 25, 4:10am EST

Sun Feb 25, 3:10am EST

Sun Feb 25, 2:10am EST

Sun Feb 25, 1:10am EST

Sun Feb 25, 12:10am EST

Sat Feb 24, 11:10pm EST

Sat Feb 24, 10:10pm EST

Sat Feb 24, 9:10pm EST

Sat Feb 24, 8:10pm EST

Sat Feb 24, 7:10pm EST

Sat Feb 24, 6:10pm EST

Sat Feb 24, 5:10pm EST

Sat Feb 24, 4:10pm EST

Sat Feb 24, 3:10pm EST

Sat Feb 24, 2:10pm EST

Sat Feb 24, 1:10pm EST

Sat Feb 24, 12:10pm EST

Sat Feb 24, 11:10am EST

Sat Feb 24, 10:10am EST

Sat Feb 24, 9:10am EST

Sat Feb 24, 8:10am EST